Location: *
(29.1167°S, 130.0000°E)
Time: 03:31:46
(UTC+00:00)

Meteor 1-11 - Pass Details

Date: 21 July 2019
Orbit: 840 x 888 km, 81.2° (Epoch: 24 August)

Event Time Altitude Azimuth Distance (km) Brightness Sun altitude
Rises 09:53:21 0° 190° (S) 3,443 7.3 -15.4°
Reaches altitude 10° 09:55:47 10° 192° (SSW) 2,507 6.6 -15.9°
Maximum altitude 10:01:27 73° 275° (W) 906 4.5 -17.1°
Drops below altitude 10° 10:07:08 10° 359° (N) 2,509 6.8 -18.3°
Sets 10:09:35 0° 1° (N) 3,446 7.5 -18.9°
